Location: Finn Prairie Wildlife Area
(42.8708°N, 93.5391°W)
Time: 13:28:44
(UTC+00:00)

Daily predictions for brighter satellites

Satellite Brightness Start Highest point End
(mag) Time Altitude Azimuth Time Altitude Azimuth Time Altitude Azimuth
Nadezhda 4 Rocket 4.3 12:00:25 10° NNW 12:06:09 43° W 12:11:54 10° SSW
Cosmos 1943 Rocket 4.2 12:04:52 10° N 12:09:08 22° NE 12:13:21 10° E
SKYMED 2 4.2 12:05:54 10° SSW 12:09:50 33° W 12:13:04 14° NW
Cosmos 1634 Rocket 4.0 12:04:02 10° S 12:10:12 89° W 12:16:28 10° N
Milstar 3 Cent rocket 4.4 12:06:50 10° SW 12:10:34 17° S 12:15:37 10° SSE
SKYMED 3 4.4 12:12:19 10° S 12:16:27 72° WSW 12:20:35 10° NNW
COSMOS 2428 2.6 12:13:02 10° SSW 12:18:43 78° WNW 12:24:28 10° NNE
Cosmos 2333 Rocket 3.0 12:14:26 10° WSW 12:19:20 29° NW 12:24:18 10° N
CZ-4C R/B 4.4 12:13:49 10° NNW 12:19:39 28° NE 12:26:26 10° E
SMAP 3.9 12:17:33 10° NNE 12:22:08 55° E 12:26:42 10° S
NOSS 0 Rocket 4.4 12:19:23 10° SSW 12:25:34 69° ESE 12:31:48 10° NNE
Cosmos 1933 3.8 12:24:45 10° NNW 12:28:24 36° W 12:32:01 10° SSW
SJ-7 4.3 12:24:23 10° N 12:28:28 78° WNW 12:32:33 10° SSW
SL-16 R/B 4.0 12:27:50 11° NW 12:28:30 11° NW 12:30:11 10° NNW
Cosmos 1844 Rocket 4.3 12:29:02 12° W 12:30:19 13° W 12:32:52 10° SW
Cosmos 1076 Rocket 3.8 12:28:22 10° S 12:32:38 71° E 12:36:56 10° NNE
Lacrosse 5 rocket 1.4 12:28:37 10° SW 12:32:51 73° NW 12:37:13 10° NE
SL-08 R/B 4.3 12:29:53 10° SSW 12:33:52 27° W 12:37:51 10° NW
COSMOS 2455 4.0 12:30:25 12° WNW 12:34:21 23° WSW 12:38:51 10° SSW
H-2A R/B 3.3 12:31:43 10° NNW 12:34:53 17° WNW 12:38:03 10° WSW
SJ-11-01 4.3 12:30:22 10° N 12:34:57 58° WNW 12:39:32 10° SSW
Cosmos 1515 3.5 12:32:32 10° NNW 12:36:06 63° W 12:39:40 10° S
Cosmos 1544 2.6 12:33:22 10° SSW 12:36:33 74° W 12:39:46 10° N
Cosmos 1953 Rocket 3.7 12:33:52 10° SSW 12:38:13 54° W 12:42:37 10° N
Cosmos 2279 Rocket 4.0 12:32:16 10° S 12:38:32 83° W 12:44:50 10° N
ATLAS 3B R/B 3.9 12:34:13 10° W 12:39:49 24° NNW 12:45:48 10° NNE
CZ-2D R/B 3.6 12:37:09 10° N 12:40:33 38° WNW 12:43:58 10° SW
Meteor 2-3 Rocket 4.3 12:36:12 10° SW 12:41:11 33° WNW 12:46:14 10° N
USA 281 4.1 12:36:47 10° N 12:41:59 26° NW 12:47:10 10° WSW
BREEZE-M DEB (TANK) 3.8 12:39:37 11° NW 12:42:59 53° NNE 12:53:32 10° E
Cosmos 2278 Rocket 2.4 12:38:18 10° NNW 12:43:59 75° ENE 12:49:37 10° SSE
Cosmos 2221 2.9 12:41:37 10° NNW 12:45:37 42° W 12:49:37 10° SSW
USA 215 3.5 12:39:37 10° NE 12:45:53 51° NNW 12:52:09 10° WSW
Cosmos 1110 Rocket 4.1 12:41:53 10° NNW 12:47:10 64° WSW 12:52:23 10° S
SeaSat 1 2.7 12:43:57 10° SE 12:48:49 71° ENE 12:53:44 10° NNW
ARGOS 3.9 12:45:41 10° N 12:50:20 30° WNW 12:54:56 10° SW
Cosmos 1862 3.9 12:47:19 10° SW 12:50:46 32° WNW 12:54:15 10° NNW
Cosmos 2237 Rocket 2.5 12:45:13 10° SSW 12:50:52 76° ESE 12:56:32 10° NNE
CZ-2C R/B 3.1 12:47:40 10° N 12:51:13 42° WNW 12:54:47 10° SW
Cosmos 1602 4.2 12:47:55 10° S 12:51:31 60° E 12:55:08 10° NNE
Helios 1B rocket 3.0 12:49:44 10° N 12:53:17 32° WNW 12:56:49 10° SW
Cosmos 2322 4.3 12:50:14 10° WSW 12:55:20 34° NW 13:00:28 10° N
CZ-4B R/B 3.8 12:51:49 10° N 12:55:43 70° WNW 12:59:45 10° SSW
Helios 1A 4.3 23:11:45 10° NE 23:14:58 22° E 23:18:11 10° SE
SJ-7 4.3 23:11:04 10° SSE 23:15:00 68° ENE 23:18:59 10° N
Cosmos 1500 3.6 23:13:03 10° N 23:16:20 35° ENE 23:19:36 10° SE
YAOGAN 11 4.2 23:12:45 10° NNE 23:17:18 75° ESE 23:21:51 10° S
CZ-2D R/B 3.2 23:15:41 10° SSE 23:19:21 85° WSW 23:23:02 10° NNW
Cosmos 2082 3.8 23:14:03 10° S 23:19:34 63° ESE 23:25:07 10° NNE
Lacrosse 5 3.9 23:19:02 10° SE 23:20:02 11° ESE 23:21:02 10° ESE
Cosmos 1726 Rocket 4.1 23:16:19 10° SSW 23:20:43 63° W 23:25:07 10° N
NOSS 3-4 (A) 3.9 23:16:33 10° NW 23:23:37 80° NE 23:31:43 10° SE
NOSS 3-4 (C) 3.9 23:16:42 10° NW 23:23:42 80° NE 23:31:43 10° SE
Cosmos 1437 Rocket 2.5 23:20:41 10° N 23:24:24 75° E 23:28:08 10° SSE
SMAP 3.1 23:21:16 10° SSE 23:25:51 62° ENE 23:30:28 10° N
Cosmos-2242 4.0 23:22:57 10° SE 23:26:34 26° E 23:30:11 10° NNE
Cosmos 2237 Rocket 4.5 23:22:56 10° NW 23:27:43 29° WSW 23:32:28 10° SSW
CZ-2C R/B 2.6 23:26:36 10° S 23:30:08 82° WSW 23:33:44 10° NNW
CZ-2C R/B 2.8 23:29:04 10° SW 23:30:23 13° S 23:31:43 10° SSE
Cosmos 1140 Rocket 4.4 23:26:26 10° N 23:30:47 26° ENE 23:35:06 10° ESE
USA 305 4.1 23:28:32 10° NNW 23:31:33 21° NNE 23:33:52 13° ENE
USA 234 3.3 23:26:07 10° NE 23:32:41 76° SE 23:39:13 10° SW
Cosmos 2279 Rocket 4.0 23:26:45 10° N 23:33:02 84° E 23:39:15 10° S
Cosmos 1812 3.5 23:33:46 10° SSE 23:36:55 27° E 23:40:06 10° NNE
Cosmos 2151 3.1 23:33:31 10° N 23:37:48 83° W 23:42:04 10° S
Helios 1B rocket 3.7 23:35:17 10° S 23:39:03 44° W 23:42:49 10° NNW
SL-8 R/B 4.0 23:35:12 10° WNW 23:39:51 49° NNE 23:43:40 15° E
Aureole 3 Rocket 4.3 23:36:50 10° NNW 23:41:12 41° W 23:44:34 10° SSW
CZ-4B R/B 3.5 23:38:04 10° SSE 23:41:39 75° ENE 23:45:15 10° N
APEX 4.1 23:40:33 10° SSE 23:42:51 19° ESE 23:43:30 17° E
NOAA 6 4.5 23:42:45 10° SE 23:47:28 38° ENE 23:52:12 10° N
Meteor 1-31 Rocket 2.6 23:44:02 10° SSE 23:47:43 89° ENE 23:51:26 10° NNW
Meteor 1-20 Rocket 4.5 23:44:05 10° N 23:49:23 44° ENE 23:54:45 10° SE
Cosmos 1544 4.0 23:47:14 10° NNW 23:50:21 44° W 23:53:27 10° SSW
Nadezhda 4 Rocket 4.0 23:44:42 10° S 23:50:44 60° E 23:56:45 10° NNE
Cosmos 2263 Rocket 2.2 23:47:03 10° SSW 23:52:36 82° WNW 23:58:12 10° NNE
Tiangong 0.3 23:51:12 10° WSW 23:53:40 21° SSW 23:56:07 10° SSE
Cosmos 1844 Rocket 3.9 23:50:17 10° SSE 23:54:18 21° E 23:55:45 19° E
